Location: Stoke Bliss
(52.2667°N, 2.5167°W)
Time: 21:35:12
(UTC+00:00)

ERS-1 Rocket - Pass Details

Date: 03 March 2021
Orbit: 752 x 758 km, 98.4° (Epoch: 16 April)

Event Time Altitude Azimuth Distance (km) Brightness Sun altitude
Exits shadow 21:44:09 32° 342° (NNW) 1,284 4.5 -34.0°
Drops below altitude 10° 21:46:50 10° 344° (NNW) 2,301 6.1 -34.3°
Sets 21:49:09 0° 345° (NNW) 3,230 7.0 -34.5°
